| time (UTC) | temp F | wind direction | speed MPH | gust MPH | rain 1hr in | rain 24hr in | rain mn in | humidity % | barometer mb |
| 20260507140231 | 54 | 234 | 1.0 | 4.0 | 0.00 | 0.03 | 0.02 | 74 | 1014.4 |
| 20260507135731 | 53 | 296 | 1.0 | 4.0 | 0.00 | 0.03 | 0.02 | 74 | 1014.4 |
| 20260507135230 | 53 | 289 | 1.0 | 4.0 | 0.00 | 0.03 | 0.02 | 71 | 1014.4 |
| 20260507134730 | 53 | 279 | 1.0 | 5.0 | 0.00 | 0.03 | 0.02 | 76 | 1014.4 |
| 20260507134230 | 53 | 11 | 1.0 | 5.0 | 0.00 | 0.03 | 0.02 | 70 | 1014.5 |
| 20260507133725 | 53 | 54 | 1.0 | 5.0 | 0.00 | 0.03 | 0.02 | 74 | 1014.6 |
| 20260507133225 | 53 | 73 | 1.0 | 5.0 | 0.00 | 0.03 | 0.02 | 72 | 1014.4 |
| 20260507133023 | 53 | 289 | 1.0 | 5.0 | 0.00 | 0.03 | 0.02 | 72 | 1014.3 |
| 20260507132227 | 53 | 234 | 1.0 | 5.0 | 0.00 | 0.03 | 0.02 | 74 | 1014.4 |
| 20260507132020 | 53 | 286 | 1.0 | 4.0 | 0.00 | 0.03 | 0.02 | 75 | 1014.5 |
| 20260507131225 | 53 | 143 | 2.0 | 7.0 | 0.00 | 0.03 | 0.02 | 73 | 1014.3 |
| 20260507130723 | 53 | 18 | 2.0 | 7.0 | 0.00 | 0.03 | 0.02 | 73 | 1014.0 |
| 20260507130223 | 53 | 286 | 1.0 | 7.0 | 0.00 | 0.03 | 0.02 | 73 | 1014.1 |
| 20260507125722 | 53 | 296 | 1.0 | 5.0 | 0.00 | 0.03 | 0.02 | 73 | 1014.3 |
| 20260507125223 | 53 | 279 | 1.0 | 4.0 | 0.00 | 0.03 | 0.02 | 74 | 1014.3 |
| 20260507124724 | 53 | 296 | 1.0 | 4.0 | 0.00 | 0.03 | 0.02 | 78 | 1014.4 |
| 20260507124222 | 53 | 284 | 1.0 | 4.0 | 0.00 | 0.03 | 0.02 | 77 | 1014.4 |
| 20260507123722 | 53 | 326 | 1.0 | 4.0 | 0.00 | 0.03 | 0.02 | 77 | 1014.3 |
| 20260507123223 | 53 | 11 | 1.0 | 4.0 | 0.00 | 0.03 | 0.02 | 78 | 1014.3 |
| 20260507123017 | 53 | 11 | 1.0 | 4.0 | 0.00 | 0.03 | 0.02 | 77 | 1014.3 |
| 20260507122223 | 53 | 273 | 1.0 | 4.0 | 0.00 | 0.03 | 0.02 | 78 | 1014.3 |
| 20260507121723 | 53 | 286 | 1.0 | 4.0 | 0.00 | 0.03 | 0.02 | 80 | 1014.3 |
| 20260507121218 | 53 | 296 | 1.0 | 4.0 | 0.00 | 0.03 | 0.02 | 79 | 1014.2 |
| 20260507120714 | 53 | 82 | 1.0 | 4.0 | 0.00 | 0.03 | 0.02 | 80 | 1014.1 |
| 20260507120215 | 54 | 296 | 1.0 | 5.0 | 0.00 | 0.03 | 0.02 | 77 | 1014.1 |
| 20260507115713 | 54 | 11 | 1.0 | 5.0 | 0.00 | 0.03 | 0.02 | 81 | 1014.1 |
| 20260507115212 | 54 | 300 | 1.0 | 7.0 | 0.00 | 0.03 | 0.02 | 83 | 1013.9 |
| 20260507114713 | 54 | 296 | 1.0 | 7.0 | 0.00 | 0.03 | 0.02 | 85 | 1013.8 |
| 20260507114211 | 54 | 251 | 1.0 | 4.0 | 0.00 | 0.03 | 0.02 | 87 | 1013.9 |
| 20260507113710 | 54 | 353 | 0.0 | 3.0 | 0.00 | 0.03 | 0.02 | 87 | 1013.7 |
| 20260507113509 | 54 | 353 | 1.0 | 4.0 | 0.00 | 0.03 | 0.02 | 86 | 1013.7 |
| 20260507112709 | 54 | 11 | 1.0 | 5.0 | 0.00 | 0.03 | 0.02 | 86 | 1013.8 |
| 20260507112206 | 54 | 54 | 1.0 | 5.0 | 0.00 | 0.03 | 0.02 | 87 | 1013.7 |
| 20260507111708 | 54 | 312 | 1.0 | 5.0 | 0.00 | 0.03 | 0.02 | 89 | 1013.6 |
| 20260507111509 | 54 | 326 | 1.0 | 3.0 | 0.00 | 0.03 | 0.02 | 90 | 1013.8 |
| 20260507110703 | 54 | 353 | 1.0 | 3.0 | 0.00 | 0.03 | 0.02 | 91 | 1013.8 |
| 20260507110206 | 54 | 279 | 0.0 | 3.0 | 0.00 | 0.03 | 0.02 | 91 | 1013.7 |
| 20260507105705 | 54 | 100 | 0.0 | 3.0 | 0.00 | 0.03 | 0.02 | 91 | 1013.7 |
| 20260507105457 | 54 | 234 | 0.0 | 3.0 | 0.00 | 0.03 | 0.02 | 91 | 1013.7 |
| 20260507104703 | 54 | 279 | 0.0 | 3.0 | 0.00 | 0.03 | 0.02 | 91 | 1013.5 |
| 20260507104202 | 54 | 11 | 0.0 | 1.0 | 0.00 | 0.03 | 0.02 | 92 | 1013.5 |
| 20260507103703 | 54 | 326 | 0.0 | 1.0 | 0.00 | 0.03 | 0.02 | 92 | 1013.5 |
| 20260507103202 | 54 | 11 | 0.0 | 1.0 | 0.00 | 0.03 | 0.02 | 92 | 1013.4 |
| 20260507102703 | 54 | 326 | 0.0 | 1.0 | 0.00 | 0.03 | 0.02 | 92 | 1013.4 |
| 20260507102203 | 54 | 73 | 0.0 | 1.0 | 0.00 | 0.03 | 0.02 | 92 | 1013.3 |
| 20260507101702 | 54 | 11 | 0.0 | 1.0 | 0.00 | 0.03 | 0.02 | 92 | 1013.4 |
| 20260507101201 | 54 | 54 | 0.0 | 1.0 | 0.00 | 0.03 | 0.02 | 92 | 1013.2 |
| 20260507100701 | 54 | 100 | 0.0 | 1.0 | 0.00 | 0.03 | 0.02 | 92 | 1013.3 |
| 20260507100202 | 54 | 54 | 0.0 | 1.0 | 0.00 | 0.03 | 0.02 | 92 | 1013.2 |
| 20260507095702 | 54 | 54 | 0.0 | 1.0 | 0.00 | 0.03 | 0.02 | 92 | 1013.1 |
| 20260507095201 | 54 | 279 | 0.0 | 1.0 | 0.00 | 0.03 | 0.02 | 92 | 1013.4 |
| 20260507094702 | 54 | 28 | 0.0 | 1.0 | 0.00 | 0.03 | 0.02 | 92 | 1013.2 |
| 20260507094459 | 54 | 11 | 0.0 | 1.0 | 0.00 | 0.03 | 0.02 | 92 | 1013.3 |
| 20260507093701 | 54 | 143 | 0.0 | 1.0 | 0.00 | 0.03 | 0.02 | 92 | 1013.3 |
| 20260507093202 | 54 | 143 | 0.0 | 1.0 | 0.00 | 0.03 | 0.02 | 92 | 1013.2 |
| 20260507092701 | 54 | 11 | 0.0 | 1.0 | 0.00 | 0.03 | 0.02 | 92 | 1013.1 |
| 20260507092205 | 54 | 325 | 0.0 | 1.0 | 0.00 | 0.03 | 0.02 | 92 | 1012.9 |
| 20260507091703 | 54 | 11 | 0.0 | 1.0 | 0.00 | 0.03 | 0.02 | 92 | 1013.0 |
| 20260507091503 | 54 | 54 | 0.0 | 1.0 | 0.00 | 0.03 | 0.02 | 91 | 1013.1 |
| 20260507090701 | 54 | 54 | 0.0 | 3.0 | 0.00 | 0.03 | 0.02 | 92 | 1013.1 |
| 20260507090201 | 55 | 54 | 0.0 | 3.0 | 0.00 | 0.03 | 0.02 | 92 | 1013.1 |
| 20260507085703 | 54 | 11 | 0.0 | 1.0 | 0.00 | 0.03 | 0.02 | 92 | 1013.1 |
| 20260507085201 | 54 | 54 | 0.0 | 1.0 | 0.00 | 0.03 | 0.02 | 91 | 1013.0 |
| 20260507084703 | 54 | 326 | 0.0 | 1.0 | 0.00 | 0.03 | 0.02 | 91 | 1013.1 |
| 20260507084202 | 55 | 279 | 0.0 | 1.0 | 0.00 | 0.03 | 0.02 | 92 | 1013.0 |
| 20260507083702 | 55 | 54 | 0.0 | 3.0 | 0.00 | 0.03 | 0.02 | 91 | 1012.9 |
| 20260507083204 | 55 | 100 | 0.0 | 3.0 | 0.00 | 0.03 | 0.02 | 91 | 1013.1 |
| 20260507082702 | 55 | 188 | 0.0 | 3.0 | 0.00 | 0.03 | 0.02 | 91 | 1013.0 |
| 20260507082508 | 55 | 54 | 0.0 | 3.0 | 0.00 | 0.03 | 0.02 | 91 | 1012.9 |
| 20260507081703 | 55 | 11 | 0.0 | 3.0 | 0.00 | 0.03 | 0.02 | 91 | 1012.8 |
| 20260507081205 | 55 | 326 | 0.0 | 3.0 | 0.00 | 0.03 | 0.02 | 91 | 1012.4 |
| 20260507080702 | 55 | 326 | 0.0 | 3.0 | 0.00 | 0.03 | 0.02 | 91 | 1012.3 |
| 20260507080201 | 55 | 234 | 0.0 | 3.0 | 0.00 | 0.03 | 0.02 | 91 | 1012.3 |
| 20260507075701 | 55 | 11 | 1.0 | 3.0 | 0.00 | 0.03 | 0.02 | 91 | 1012.3 |
| 20260507075202 | 55 | 100 | 0.0 | 3.0 | 0.00 | 0.03 | 0.02 | 91 | 1012.2 |
| 20260507074703 | 55 | 234 | 0.0 | 3.0 | 0.00 | 0.03 | 0.02 | 92 | 1012.2 |
| 20260507074501 | 55 | 28 | 1.0 | 5.0 | 0.00 | 0.03 | 0.02 | 91 | 1012.3 |
| 20260507074000 | 55 | 54 | 1.0 | 5.0 | 0.00 | 0.03 | 0.02 | 91 | 1012.2 |
| 20260507073506 | 55 | 54 | 1.0 | 5.0 | 0.00 | 0.03 | 0.02 | 92 | 1012.0 |
| 20260507072701 | 55 | 353 | 1.0 | 5.0 | 0.00 | 0.03 | 0.02 | 92 | 1012.0 |
| 20260507072201 | 56 | 21 | 1.0 | 4.0 | 0.00 | 0.03 | 0.02 | 92 | 1012.0 |
| 20260507071702 | 56 | 251 | 1.0 | 3.0 | 0.00 | 0.03 | 0.02 | 92 | 1012.2 |
| 20260507071202 | 56 | 260 | 1.0 | 4.0 | 0.00 | 0.03 | 0.02 | 92 | 1012.0 |
| 20260507070954 | 56 | 37 | 1.0 | 7.0 | 0.00 | 0.03 | 0.02 | 92 | 1011.9 |
| 20260507070204 | 56 | 11 | 1.0 | 7.0 | 0.00 | 0.03 | 0.02 | 92 | 1011.9 |
| 20260507065701 | 56 | 11 | 1.0 | 5.0 | 0.00 | 0.03 | 0.02 | 92 | 1012.1 |
| 20260507065503 | 56 | 234 | 1.0 | 4.0 | 0.00 | 0.03 | 0.02 | 92 | 1012.2 |
| 20260507064702 | 56 | 284 | 1.0 | 5.0 | 0.00 | 0.03 | 0.02 | 92 | 1012.1 |
| 20260507064203 | 56 | 54 | 1.0 | 7.0 | 0.00 | 0.03 | 0.02 | 92 | 1012.2 |
| 20260507063958 | 56 | 100 | 1.0 | 7.0 | 0.00 | 0.03 | 0.02 | 92 | 1012.2 |
| 20260507063203 | 56 | 100 | 2.0 | 5.0 | 0.00 | 0.03 | 0.02 | 92 | 1012.2 |
| 20260507062700 | 56 | 279 | 2.0 | 5.0 | 0.00 | 0.03 | 0.02 | 92 | 1012.4 |
| 20260507062154 | 56 | 279 | 1.0 | 7.0 | 0.00 | 0.03 | 0.02 | 92 | 1012.1 |
| 20260507061649 | 56 | 248 | 1.0 | 7.0 | 0.00 | 0.03 | 0.02 | 92 | 1012.0 |
| 20260507061143 | 56 | 143 | 1.0 | 4.0 | 0.00 | 0.03 | 0.02 | 92 | 1011.9 |
| 20260507060637 | 56 | 11 | 1.0 | 4.0 | 0.00 | 0.03 | 0.02 | 92 | 1011.9 |
| 20260507060138 | 56 | 326 | 1.0 | 4.0 | 0.00 | 0.03 | 0.02 | 92 | 1012.0 |
| 20260507055633 | 56 | 100 | 1.0 | 5.0 | 0.00 | 0.03 | 0.02 | 91 | 1012.3 |
| 20260507055131 | 56 | 255 | 1.0 | 5.0 | 0.01 | 0.03 | 0.02 | 91 | 1012.3 |
| 20260507054929 | 56 | 326 | 1.0 | 7.0 | 0.02 | 0.03 | 0.02 | 91 | 1012.1 |
| 20260507054130 | 56 | 21 | 1.0 | 7.0 | 0.02 | 0.03 | 0.02 | 91 | 1012.3 |
| 20260507053630 | 56 | 282 | 1.0 | 4.0 | 0.02 | 0.03 | 0.02 | 91 | 1012.4 |
| 20260507053131 | 56 | 143 | 1.0 | 5.0 | 0.02 | 0.03 | 0.02 | 90 | 1012.3 |
| 20260507052630 | 56 | 21 | 2.0 | 8.0 | 0.02 | 0.03 | 0.02 | 90 | 1012.1 |
| 20260507052131 | 56 | 305 | 1.0 | 8.0 | 0.02 | 0.03 | 0.02 | 90 | 1012.1 |
| 20260507051921 | 56 | 54 | 1.0 | 4.0 | 0.02 | 0.03 | 0.02 | 89 | 1011.9 |
| 20260507051129 | 56 | 326 | 1.0 | 4.0 | 0.02 | 0.03 | 0.02 | 89 | 1012.0 |
| 20260507050629 | 57 | 82 | 1.0 | 7.0 | 0.02 | 0.03 | 0.02 | 88 | 1012.0 |
| 20260507050421 | 57 | 11 | 1.0 | 7.0 | 0.02 | 0.03 | 0.02 | 88 | 1012.4 |
| 20260507045631 | 57 | 326 | 2.0 | 7.0 | 0.02 | 0.03 | 0.02 | 87 | 1012.6 |
| 20260507045130 | 58 | 116 | 2.0 | 7.0 | 0.01 | 0.02 | 0.00 | 85 | 1012.8 |
| 20260507044629 | 58 | 279 | 1.0 | 7.0 | 0.00 | 0.01 | 0.00 | 85 | 1012.5 |
| 20260507044129 | 58 | 303 | 2.0 | 7.0 | 0.00 | 0.01 | 0.00 | 83 | 1012.5 |
| 20260507043630 | 59 | 262 | 2.0 | 14.0 | 0.00 | 0.01 | 0.00 | 81 | 1012.3 |
| 20260507043124 | 59 | 23 | 3.0 | 14.0 | 0.00 | 0.01 | 0.00 | 79 | 1012.3 |
| 20260507042618 | 60 | 125 | 4.0 | 23.0 | 0.00 | 0.01 | 0.00 | 77 | 1012.4 |
| 20260507042409 | 60 | 241 | 4.0 | 23.0 | 0.00 | 0.01 | 0.00 | 75 | 1012.5 |
| 20260507041902 | 61 | 246 | 2.0 | 15.0 | 0.00 | 0.01 | 0.00 | 78 | 1012.5 |
| 20260507041107 | 61 | 205 | 1.0 | 4.0 | 0.00 | 0.01 | 0.00 | 80 | 1012.3 |
| 20260507040610 | 61 | 11 | 1.0 | 5.0 | 0.00 | 0.01 | 0.00 | 81 | 1012.0 |
| 20260507040402 | 61 | 11 | 1.0 | 5.0 | 0.00 | 0.01 | 0.00 | 81 | 1012.0 |
| 20260507035606 | 61 | 11 | 0.0 | 4.0 | 0.00 | 0.01 | 0.01 | 81 | 1011.8 |
| 20260507035107 | 61 | 268 | 1.0 | 5.0 | 0.00 | 0.01 | 0.01 | 80 | 1011.7 |
| 20260507034858 | 62 | 279 | 1.0 | 5.0 | 0.00 | 0.01 | 0.01 | 79 | 1011.5 |
| 20260507034401 | 62 | 205 | 2.0 | 7.0 | 0.00 | 0.01 | 0.01 | 78 | 1011.7 |
| 20260507033609 | 63 | 265 | 2.0 | 8.0 | 0.00 | 0.01 | 0.01 | 75 | 1011.9 |
| 20260507033108 | 63 | 303 | 2.0 | 9.0 | 0.00 | 0.01 | 0.01 | 74 | 1011.6 |
| 20260507032607 | 63 | 279 | 3.0 | 9.0 | 0.00 | 0.01 | 0.01 | 72 | 1011.8 |
| 20260507032107 | 64 | 258 | 2.0 | 8.0 | 0.00 | 0.01 | 0.01 | 72 | 1011.9 |
| 20260507031607 | 64 | 65 | 3.0 | 9.0 | 0.00 | 0.01 | 0.01 | 72 | 1011.7 |
| 20260507031106 | 64 | 298 | 3.0 | 9.0 | 0.00 | 0.01 | 0.01 | 72 | 1011.7 |
| 20260507030606 | 64 | 255 | 2.0 | 8.0 | 0.00 | 0.01 | 0.01 | 72 | 1011.4 |
| 20260507030108 | 64 | 279 | 2.0 | 11.0 | 0.00 | 0.01 | 0.01 | 72 | 1011.1 |
| 20260507025609 | 64 | 54 | 3.0 | 12.0 | 0.00 | 0.01 | 0.01 | 73 | 1011.0 |
| 20260507025104 | 64 | 289 | 3.0 | 12.0 | 0.00 | 0.01 | 0.01 | 73 | 1011.2 |
| 20260507024604 | 64 | 261 | 3.0 | 15.0 | 0.00 | 0.01 | 0.01 | 72 | 1011.4 |
| 20260507024106 | 65 | 261 | 2.0 | 15.0 | 0.00 | 0.01 | 0.01 | 72 | 1011.5 |
| 20260507023603 | 65 | 296 | 2.0 | 7.0 | 0.00 | 0.01 | 0.01 | 73 | 1011.4 |
| 20260507023102 | 65 | 16 | 2.0 | 7.0 | 0.00 | 0.01 | 0.01 | 75 | 1011.1 |
| 20260507022605 | 65 | 326 | 1.0 | 5.0 | 0.00 | 0.01 | 0.01 | 75 | 1011.0 |
| 20260507022352 | 65 | 326 | 1.0 | 8.0 | 0.00 | 0.01 | 0.01 | 75 | 1011.1 |
| 20260507021603 | 65 | 292 | 2.0 | 8.0 | 0.00 | 0.01 | 0.01 | 75 | 1011.2 |
| 20260507021102 | 65 | 305 | 2.0 | 8.0 | 0.00 | 0.01 | 0.01 | 75 | 1011.1 |
| 20260507020943 | 66 | 279 | 3.0 | 12.0 | 0.00 | 0.01 | 0.01 | 75 | 1011.0 |
| 20260507020938 | 65 | 11 | 3.0 | 12.0 | 0.00 | 0.01 | 0.01 | 75 | 1010.9 |
| 20260507015603 | 66 | 268 | 2.0 | 8.0 | 0.00 | 0.01 | 0.01 | 75 | 1010.8 |
| 20260507015103 | 66 | 341 | 2.0 | 9.0 | 0.00 | 0.01 | 0.01 | 74 | 1010.6 |
| 20260507014603 | 66 | 289 | 2.0 | 9.0 | 0.00 | 0.01 | 0.01 | 76 | 1010.8 |
| 20260507014356 | 67 | 41 | 2.0 | 12.0 | 0.00 | 0.01 | 0.01 | 77 | 1010.7 |
| 20260507013603 | 67 | 11 | 3.0 | 16.0 | 0.00 | 0.01 | 0.01 | 76 | 1011.0 |
| 20260507013101 | 67 | 251 | 3.0 | 16.0 | 0.00 | 0.01 | 0.01 | 77 | 1011.0 |
| 20260507012603 | 67 | 279 | 2.0 | 12.0 | 0.00 | 0.01 | 0.01 | 78 | 1010.9 |
| 20260507012105 | 67 | 242 | 3.0 | 12.0 | 0.00 | 0.01 | 0.01 | 79 | 1010.9 |
| 20260507011604 | 67 | 296 | 3.0 | 14.0 | 0.00 | 0.01 | 0.01 | 81 | 1010.9 |
| 20260507011103 | 67 | 279 | 1.0 | 14.0 | 0.00 | 0.01 | 0.01 | 82 | 1010.9 |
| 20260507010603 | 67 | 178 | 0.0 | 3.0 | 0.00 | 0.01 | 0.01 | 82 | 1010.7 |
| 20260507005602 | 67 | 188 | 1.0 | 3.0 | 0.00 | 0.01 | 0.01 | 82 | 1011.0 |
| 20260507005100 | 67 | 178 | 1.0 | 3.0 | 0.00 | 0.01 | 0.01 | 83 | 1010.8 |
| 20260507004853 | 67 | 117 | 1.0 | 3.0 | 0.00 | 0.01 | 0.01 | 83 | 1010.7 |
| 20260507004354 | 67 | 162 | 0.0 | 3.0 | 0.00 | 0.01 | 0.01 | 83 | 1010.5 |
| 20260507003602 | 67 | 181 | 0.0 | 1.0 | 0.00 | 0.01 | 0.01 | 84 | 1010.6 |
| 20260507003104 | 67 | 234 | 1.0 | 3.0 | 0.00 | 0.01 | 0.01 | 84 | 1010.6 |
| 20260507002600 | 67 | 171 | 0.0 | 3.0 | 0.00 | 0.01 | 0.01 | 84 | 1010.5 |
| 20260507002103 | 68 | 11 | 0.0 | 1.0 | 0.00 | 0.01 | 0.01 | 83 | 1010.4 |
| 20260507001601 | 68 | 54 | 0.0 | 3.0 | 0.00 | 0.01 | 0.01 | 82 | 1010.3 |
| 20260507001100 | 68 | 54 | 1.0 | 3.0 | 0.00 | 0.01 | 0.01 | 82 | 1010.2 |
| 20260507000746 | 68 | 116 | 0.0 | 1.0 | 0.00 | 0.01 | 0.01 | 81 | 1010.4 |
| 20260507000739 | 68 | 100 | 0.0 | 1.0 | 0.00 | 0.01 | 0.01 | 81 | 1010.3 |
| 20260507000714 | 68 | 117 | 0.0 | 1.0 | 0.00 | 0.01 | 0.01 | 81 | 1010.3 |
| 20260506235101 | 69 | 54 | 0.0 | 1.0 | 0.00 | 0.01 | 0.01 | 80 | 1010.3 |
| 20260506234600 | 69 | 143 | 0.0 | 1.0 | 0.00 | 0.01 | 0.01 | 80 | 1010.3 |
| 20260506234100 | 69 | 143 | 0.0 | 1.0 | 0.00 | 0.01 | 0.01 | 79 | 1010.2 |
| 20260506233602 | 69 | 261 | 0.0 | 3.0 | 0.00 | 0.01 | 0.01 | 79 | 1010.0 |
| 20260506233101 | 69 | 54 | 1.0 | 3.0 | 0.00 | 0.01 | 0.01 | 77 | 1010.0 |
| 20260506232600 | 69 | 89 | 1.0 | 3.0 | 0.00 | 0.01 | 0.01 | 77 | 1009.9 |
| 20260506232103 | 69 | 188 | 1.0 | 3.0 | 0.00 | 0.01 | 0.01 | 76 | 1010.0 |
| 20260506231600 | 69 | 100 | 1.0 | 4.0 | 0.00 | 0.01 | 0.01 | 77 | 1009.8 |
| 20260506231102 | 70 | 188 | 2.0 | 5.0 | 0.00 | 0.01 | 0.01 | 75 | 1009.7 |
| 20260506230602 | 70 | 143 | 1.0 | 5.0 | 0.00 | 0.01 | 0.01 | 75 | 1009.7 |
| 20260506230400 | 70 | 171 | 1.0 | 4.0 | 0.00 | 0.01 | 0.01 | 75 | 1009.5 |
| 20260506225559 | 70 | 198 | 2.0 | 7.0 | 0.00 | 0.01 | 0.01 | 75 | 1009.4 |
| 20260506225057 | 70 | 143 | 2.0 | 7.0 | 0.00 | 0.01 | 0.01 | 75 | 1009.5 |
| 20260506224557 | 70 | 162 | 3.0 | 8.0 | 0.00 | 0.01 | 0.01 | 75 | 1009.5 |
| 20260506224054 | 70 | 143 | 3.0 | 15.0 | 0.00 | 0.01 | 0.01 | 75 | 1009.5 |
| 20260506223554 | 70 | 166 | 3.0 | 15.0 | 0.00 | 0.01 | 0.01 | 74 | 1009.5 |
| 20260506223056 | 70 | 208 | 2.0 | 9.0 | 0.00 | 0.01 | 0.01 | 75 | 1009.5 |
| 20260506222557 | 71 | 162 | 2.0 | 8.0 | 0.00 | 0.01 | 0.01 | 74 | 1009.5 |
| 20260506222358 | 71 | 110 | 2.0 | 8.0 | 0.00 | 0.01 | 0.01 | 73 | 1009.4 |
| 20260506221556 | 71 | 143 | 2.0 | 7.0 | 0.00 | 0.01 | 0.01 | 74 | 1009.3 |
| 20260506221054 | 71 | 125 | 2.0 | 7.0 | 0.00 | 0.01 | 0.01 | 74 | 1009.4 |
| 20260506220555 | 71 | 171 | 2.0 | 5.0 | 0.00 | 0.01 | 0.01 | 73 | 1009.5 |
| 20260506220054 | 71 | 162 | 1.0 | 5.0 | 0.00 | 0.01 | 0.01 | 74 | 1009.4 |
| 20260506215852 | 71 | 143 | 2.0 | 8.0 | 0.00 | 0.01 | 0.01 | 74 | 1009.3 |
| 20260506215056 | 71 | 125 | 2.0 | 8.0 | 0.00 | 0.01 | 0.01 | 73 | 1009.4 |
| 20260506214851 | 71 | 203 | 2.0 | 8.0 | 0.00 | 0.01 | 0.01 | 73 | 1009.4 |
| 20260506214054 | 71 | 155 | 2.0 | 8.0 | 0.00 | 0.01 | 0.01 | 72 | 1009.4 |
| 20260506213547 | 71 | 107 | 2.0 | 7.0 | 0.00 | 0.01 | 0.01 | 72 | 1009.4 |
| 20260506213123 | 72 | 160 | 3.0 | 11.0 | 0.00 | 0.01 | 0.01 | 72 | 1009.2 |
| 20260506213109 | 71 | 160 | 2.0 | 8.0 | 0.00 | 0.01 | 0.01 | 72 | 1009.4 |
| 20260506212035 | 72 | 155 | 3.0 | 11.0 | 0.00 | 0.01 | 0.01 | 71 | 1009.3 |
| 20260506211535 | 73 | 125 | 3.0 | 11.0 | 0.00 | 0.01 | 0.01 | 70 | 1009.2 |
| 20260506211337 | 73 | 279 | 4.0 | 9.0 | 0.00 | 0.01 | 0.01 | 70 | 1009.1 |
| 20260506210536 | 72 | 176 | 3.0 | 11.0 | 0.00 | 0.01 | 0.01 | 72 | 1009.1 |
| 20260506210331 | 72 | 166 | 2.0 | 11.0 | 0.00 | 0.01 | 0.01 | 71 | 1009.1 |
| 20260506205533 | 72 | 171 | 2.0 | 11.0 | 0.00 | 0.01 | 0.01 | 72 | 1008.9 |
| 20260506205033 | 71 | 117 | 2.0 | 8.0 | 0.00 | 0.01 | 0.01 | 72 | 1008.8 |
| 20260506204830 | 72 | 172 | 2.0 | 8.0 | 0.00 | 0.01 | 0.01 | 71 | 1009.0 |
| 20260506204032 | 71 | 100 | 3.0 | 11.0 | 0.00 | 0.01 | 0.01 | 72 | 1009.0 |
| 20260506203531 | 71 | 105 | 3.0 | 11.0 | 0.00 | 0.01 | 0.01 | 71 | 1009.0 |
| 20260506203029 | 71 | 186 | 2.0 | 9.0 | 0.00 | 0.01 | 0.01 | 72 | 1008.8 |
| 20260506202529 | 71 | 120 | 2.0 | 7.0 | 0.00 | 0.01 | 0.01 | 72 | 1008.8 |
| 20260506202030 | 71 | 168 | 2.0 | 7.0 | 0.00 | 0.01 | 0.01 | 72 | 1009.2 |
| 20260506201532 | 71 | 136 | 3.0 | 8.0 | 0.00 | 0.01 | 0.01 | 72 | 1009.1 |
| 20260506201031 | 71 | 171 | 3.0 | 8.0 | 0.00 | 0.01 | 0.01 | 72 | 1009.0 |
| 20260506200530 | 71 | 162 | 2.0 | 8.0 | 0.00 | 0.01 | 0.01 | 72 | 1009.2 |
| 20260506200031 | 71 | 108 | 2.0 | 8.0 | 0.00 | 0.01 | 0.01 | 72 | 1009.1 |
| 20260506195530 | 71 | 191 | 3.0 | 12.0 | 0.00 | 0.01 | 0.01 | 73 | 1009.1 |
| 20260506195031 | 71 | 188 | 3.0 | 12.0 | 0.00 | 0.01 | 0.01 | 72 | 1009.1 |
| 20260506194530 | 71 | 123 | 3.0 | 9.0 | 0.00 | 0.01 | 0.01 | 73 | 1009.1 |
| 20260506194029 | 70 | 136 | 3.0 | 15.0 | 0.00 | 0.01 | 0.01 | 73 | 1009.2 |
| 20260506193831 | 70 | 143 | 4.0 | 15.0 | 0.00 | 0.01 | 0.01 | 72 | 1009.2 |
| 20260506193031 | 70 | 167 | 4.0 | 14.0 | 0.00 | 0.01 | 0.01 | 72 | 1009.2 |
| 20260506192833 | 71 | 149 | 4.0 | 19.0 | 0.00 | 0.01 | 0.01 | 70 | 1009.3 |
| 20260506192032 | 72 | 176 | 3.0 | 19.0 | 0.00 | 0.01 | 0.01 | 71 | 1009.3 |
| 20260506191530 | 72 | 158 | 3.0 | 11.0 | 0.00 | 0.01 | 0.01 | 70 | 1009.2 |
| 20260506191031 | 72 | 133 | 3.0 | 9.0 | 0.00 | 0.01 | 0.01 | 71 | 1009.3 |
| 20260506190530 | 71 | 54 | 2.0 | 8.0 | 0.00 | 0.01 | 0.01 | 73 | 1009.3 |
| 20260506190333 | 71 | 155 | 2.0 | 9.0 | 0.00 | 0.01 | 0.01 | 75 | 1009.3 |
| 20260506185531 | 70 | 151 | 3.0 | 12.0 | 0.00 | 0.01 | 0.01 | 75 | 1009.3 |
| 20260506185030 | 69 | 188 | 3.0 | 12.0 | 0.00 | 0.01 | 0.01 | 74 | 1009.5 |
| 20260506184530 | 69 | 160 | 3.0 | 15.0 | 0.00 | 0.01 | 0.01 | 76 | 1009.5 |
| 20260506184330 | 68 | 143 | 3.0 | 15.0 | 0.00 | 0.01 | 0.01 | 75 | 1009.5 |
| 20260506183823 | 68 | 143 | 3.0 | 11.0 | 0.00 | 0.01 | 0.01 | 77 | 1009.7 |
| 20260506183020 | 68 | 181 | 4.0 | 11.0 | 0.00 | 0.01 | 0.01 | 76 | 1009.8 |
| 20260506182514 | 68 | 162 | 4.0 | 14.0 | 0.00 | 0.01 | 0.01 | 77 | 1009.9 |
| 20260506182009 | 68 | 143 | 3.0 | 14.0 | 0.00 | 0.01 | 0.01 | 75 | 1010.0 |
| 20260506181804 | 68 | 143 | 3.0 | 14.0 | 0.00 | 0.01 | 0.01 | 77 | 1009.8 |
| 20260506181004 | 68 | 143 | 4.0 | 14.0 | 0.00 | 0.01 | 0.01 | 76 | 1009.9 |
| 20260506180503 | 68 | 176 | 3.0 | 9.0 | 0.00 | 0.01 | 0.01 | 76 | 1010.0 |
| 20260506180300 | 68 | 100 | 3.0 | 16.0 | 0.00 | 0.01 | 0.01 | 77 | 1010.1 |
| 20260506175502 | 67 | 220 | 4.0 | 16.0 | 0.00 | 0.01 | 0.01 | 78 | 1010.1 |
| 20260506175002 | 67 | 162 | 4.0 | 15.0 | 0.00 | 0.01 | 0.01 | 78 | 1010.1 |
| 20260506174505 | 67 | 117 | 3.0 | 12.0 | 0.00 | 0.01 | 0.01 | 79 | 1010.2 |
| 20260506174003 | 67 | 155 | 3.0 | 16.0 | 0.00 | 0.01 | 0.01 | 80 | 1010.2 |
| 20260506173502 | 66 | 143 | 4.0 | 16.0 | 0.00 | 0.01 | 0.01 | 80 | 1010.1 |
| 20260506173003 | 66 | 157 | 4.0 | 12.0 | 0.00 | 0.01 | 0.01 | 80 | 1010.3 |
| 20260506172502 | 65 | 159 | 4.0 | 12.0 | 0.00 | 0.01 | 0.01 | 81 | 1010.2 |
| 20260506172003 | 65 | 139 | 3.0 | 12.0 | 0.00 | 0.01 | 0.01 | 81 | 1010.2 |
| 20260506171503 | 65 | 198 | 3.0 | 14.0 | 0.00 | 0.01 | 0.01 | 83 | 1010.2 |
| 20260506171002 | 65 | 152 | 4.0 | 14.0 | 0.00 | 0.01 | 0.01 | 83 | 1010.3 |
| 20260506170502 | 65 | 143 | 4.0 | 12.0 | 0.00 | 0.01 | 0.01 | 83 | 1010.4 |
| 20260506170300 | 64 | 169 | 5.0 | 18.0 | 0.00 | 0.01 | 0.01 | 84 | 1010.5 |
| 20260506165502 | 64 | 138 | 5.0 | 24.0 | 0.00 | 0.01 | 0.01 | 85 | 1010.6 |
| 20260506165001 | 64 | 167 | 4.0 | 24.0 | 0.00 | 0.01 | 0.01 | 84 | 1010.4 |
| 20260506164502 | 64 | 169 | 3.0 | 15.0 | 0.00 | 0.01 | 0.01 | 86 | 1010.4 |
| 20260506164001 | 64 | 218 | 3.0 | 12.0 | 0.00 | 0.01 | 0.01 | 88 | 1010.4 |
| 20260506163502 | 64 | 100 | 4.0 | 14.0 | 0.00 | 0.01 | 0.01 | 88 | 1010.4 |
| 20260506163002 | 63 | 196 | 4.0 | 15.0 | 0.00 | 0.01 | 0.01 | 88 | 1010.6 |
| 20260506162503 | 63 | 123 | 3.0 | 15.0 | 0.00 | 0.01 | 0.01 | 89 | 1010.5 |
| 20260506162004 | 63 | 168 | 3.0 | 12.0 | 0.00 | 0.01 | 0.01 | 90 | 1010.5 |
| 20260506161503 | 63 | 129 | 2.0 | 12.0 | 0.00 | 0.01 | 0.01 | 90 | 1010.5 |
| 20260506161002 | 63 | 28 | 3.0 | 14.0 | 0.00 | 0.01 | 0.01 | 91 | 1010.5 |
| 20260506160502 | 62 | 158 | 3.0 | 14.0 | 0.00 | 0.01 | 0.01 | 90 | 1010.5 |
| 20260506160001 | 62 | 187 | 2.0 | 9.0 | 0.00 | 0.01 | 0.01 | 91 | 1010.6 |
| 20260506155501 | 62 | 135 | 2.0 | 9.0 | 0.01 | 0.01 | 0.01 | 92 | 1010.7 |
| 20260506155002 | 62 | 168 | 2.0 | 9.0 | 0.01 | 0.01 | 0.01 | 92 | 1010.7 |
| 20260506154501 | 62 | 234 | 2.0 | 7.0 | 0.01 | 0.01 | 0.01 | 92 | 1010.6 |
| 20260506154001 | 62 | 143 | 1.0 | 9.0 | 0.01 | 0.01 | 0.01 | 93 | 1010.5 |
| 20260506153753 | 62 | 107 | 2.0 | 9.0 | 0.01 | 0.01 | 0.01 | 93 | 1010.8 |
| 20260506153002 | 61 | 94 | 2.0 | 9.0 | 0.01 | 0.01 | 0.01 | 93 | 1010.9 |
| 20260506152459 | 61 | 181 | 2.0 | 9.0 | 0.01 | 0.01 | 0.01 | 93 | 1011.0 |
| 20260506151952 | 61 | 234 | 2.0 | 11.0 | 0.01 | 0.01 | 0.01 | 93 | 1010.9 |
| 20260506151446 | 60 | 92 | 2.0 | 11.0 | 0.01 | 0.01 | 0.01 | 92 | 1010.9 |
| 20260506150944 | 61 | 134 | 2.0 | 8.0 | 0.01 | 0.01 | 0.01 | 92 | 1011.1 |
| 20260506150746 | 61 | 143 | 1.0 | 8.0 | 0.01 | 0.01 | 0.01 | 93 | 1011.2 |
| 20260506145942 | 61 | 82 | 1.0 | 5.0 | 0.01 | 0.01 | 0.01 | 93 | 1011.0 |
| 20260506145443 | 61 | 54 | 2.0 | 7.0 | 0.00 | 0.00 | 0.00 | 92 | 1011.4 |
| 20260506144942 | 61 | 110 | 2.0 | 8.0 | 0.00 | 0.00 | 0.00 | 92 | 1011.5 |
| 20260506144443 | 61 | 178 | 2.0 | 9.0 | 0.00 | 0.00 | 0.00 | 92 | 1011.6 |
| 20260506143940 | 61 | 189 | 2.0 | 9.0 | 0.00 | 0.00 | 0.00 | 92 | 1011.7 |
| 20260506143443 | 60 | 265 | 1.0 | 5.0 | 0.00 | 0.00 | 0.00 | 92 | 1011.6 |
| 20260506142941 | 61 | 77 | 1.0 | 4.0 | 0.00 | 0.00 | 0.00 | 93 | 1011.5 |
| 20260506142439 | 61 | 54 | 1.0 | 4.0 | 0.00 | 0.00 | 0.00 | 93 | 1011.5 |
| 20260506141935 | 61 | 205 | 1.0 | 4.0 | 0.00 | 0.00 | 0.00 | 92 | 1011.5 |
| 20260506141437 | 60 | 153 | 1.0 | 4.0 | 0.00 | 0.00 | 0.00 | 92 | 1011.6 |
| 20260506140937 | 61 | 82 | 1.0 | 4.0 | 0.00 | 0.00 | 0.00 | 92 | 1011.6 |
| 20260506140436 | 61 | 143 | 1.0 | 4.0 | 0.00 | 0.00 | 0.00 | 92 | 1011.5 |